Find Starlink 30949

NORAD ID: 58415 Int'l Des: 2023-180 Owner: SPXS Country: US Constellation: starlink operational
LEOCIRCULAR

現在のビュー

3D地球を読み込み中...

About Starlink 30949

Starlink 30949 (NORAD 58415) is a starlink constellation satellite (v2 mini) launched Nov 22, 2023 by SPXS of US. It operates in LEO, CIRCULAR orbit with a mass of 730.00 kg.

次回通過

Passes for default location (London). Set your location on the main map for personalized predictions.

高度履歴

Loading altitude history...

軌道要素

1 58415U 23180P 26235.93721167 .00002055 00000-0 84240-4 0 9995
2 58415 43.0031 188.0582 0001656 280.8124 79.2541 15.27564309153202
Epoch: Aug 23, 2026 • Age: 10 hours

現在のステータス

高度 483.7 km
遠地点 / 近地点 N/A
速度 7.63 km/s
衛星直下点 26.97°N, 124.7°E
打ち上げ日 Nov 22, 2023
運用期間 2.7 years
タイプ internet

技術仕様

分類 Payload
質量 730.00 kg
乾燥質量 700.00 kg
総質量 730.00 kg
長さ 0.30 m
直径 4.10 m
スパン 29.00 m
形状 Box + pan
製造者 SPXS
バスタイプ Starlink V2M
フェーズステータス In Orbit
所有者/国 SPXS/US

Most Searched